This is the latest recevied weather packets stored in our database for station/object HP1PCR-13. If no packets are shown the sender has not sent any weather packets the latest 1 day(s).
| Time | Temp. | Humidity | Pressure | Rain* | Wind** | Luminosity | Snow |
|---|---|---|---|---|---|---|---|
| 1777861378 | 30° C | 33% | 1004.8 hPa | - | - | - | - |
| 1777858961 | 30° C | 30% | 1004.3 hPa | - | - | - | - |
| 1777858357 | 30.56° C | 31% | 1004.3 hPa | - | - | - | - |
| 1777857754 | 30.56° C | 31% | 1004.1 hPa | - | - | - | - |
| 1777856545 | 30.56° C | 34% | 1004.2 hPa | - | - | - | - |
| 1777855941 | 31.11° C | 35% | 1004.3 hPa | - | - | - | - |
| 1777855337 | 31.11° C | 37% | 1004.4 hPa | - | - | - | - |
| 1777854733 | 31.11° C | 35% | 1004.2 hPa | - | - | - | - |
| 1777854130 | 31.11° C | 33% | 1004.2 hPa | - | - | - | - |
| 1777853525 | 31.67° C | 33% | 1004.1 hPa | - | - | - | - |
| 1777852921 | 31.67° C | 34% | 1003.9 hPa | - | - | - | - |
| 1777852316 | 32.22° C | 34% | 1003.7 hPa | - | - | - | - |
| 1777851712 | 32.22° C | 34% | 1003.7 hPa | - | - | - | - |
| 1777851108 | 32.78° C | 35% | 1003.5 hPa | - | - | - | - |
| 1777850504 | 33.33° C | 37% | 1003.5 hPa | - | - | - | - |
| 1777849899 | 33.33° C | 41% | 1003.3 hPa | - | - | - | - |
| 1777849296 | 33.89° C | 41% | 1003.1 hPa | - | - | - | - |
| 1777848692 | 33.89° C | 41% | 1003 hPa | - | - | - | - |
| 1777848088 | 33.89° C | 41% | 1003 hPa | - | - | - | - |
| 1777847483 | 33.89° C | 41% | 1003 hPa | - | - | - | - |
| 1777846879 | 33.89° C | 41% | 1003.1 hPa | - | - | - | - |
| 1777846275 | 33.89° C | 41% | 1003.2 hPa | - | - | - | - |
| 1777845067 | 33.89° C | 41% | 1003 hPa | - | - | - | - |
| 1777844464 | 33.89° C | 41% | 1003 hPa | - | - | - | - |
| 1777843859 | 33.89° C | 41% | 1003.1 hPa | - | - | - | - |
* Rain since midnight (hover to see other rain measurements)
** Current wind speed in m/s (hover to see current wind gust speed)